TimeEST,TemperatureF,Dew PointF,Humidity,Sea Level PressureIn,VisibilityMPH,Wind Direction,Wind SpeedMPH,Gust SpeedMPH,PrecipitationIn,Events,Conditions,WindDirDegrees,DateUTC
12:11 AM,26.2,12.9,57,30.17,10.0,NNW,17.3,24.2,N/A,,Clear,330,2013-02-21 05:11:00
12:31 AM,26.1,13.3,59,30.16,10.0,NW,16.1,-,N/A,,Clear,320,2013-02-21 05:31:00
12:51 AM,25.7,13.8,61,30.16,10.0,NW,12.7,21.9,N/A,,Clear,320,2013-02-21 05:51:00
1:11 AM,25.5,14.2,62,30.16,10.0,NW,12.7,18.4,N/A,,Clear,320,2013-02-21 06:11:00
1:31 AM,25.7,14.2,62,30.16,10.0,NW,12.7,18.4,N/A,,Clear,320,2013-02-21 06:31:00
1:51 AM,25.5,14.4,63,30.16,10.0,NNW,15.0,-,N/A,,Clear,330,2013-02-21 06:51:00
2:11 AM,25.3,14.4,63,30.16,10.0,NW,10.4,-,N/A,,Clear,320,2013-02-21 07:11:00
2:31 AM,25.5,14.5,63,30.15,10.0,NW,10.4,24.2,N/A,,Clear,320,2013-02-21 07:31:00
2:51 AM,25.5,14.5,63,30.16,10.0,NW,11.5,16.1,N/A,,Clear,320,2013-02-21 07:51:00
3:11 AM,25.5,14.5,63,30.16,10.0,NW,10.4,18.4,N/A,,Clear,320,2013-02-21 08:11:00
3:31 AM,25.7,14.7,63,30.16,10.0,NW,8.1,-,N/A,,Clear,310,2013-02-21 08:31:00
3:51 AM,25.5,14.5,63,30.15,10.0,NW,12.7,16.1,N/A,,Clear,320,2013-02-21 08:51:00
4:11 AM,25.3,14.4,63,30.16,10.0,NW,12.7,18.4,N/A,,Clear,320,2013-02-21 09:11:00
4:31 AM,25.2,14.5,64,30.16,10.0,NW,11.5,18.4,N/A,,Clear,320,2013-02-21 09:31:00
4:51 AM,25.3,14.4,63,30.17,10.0,NNW,13.8,18.4,N/A,,Clear,330,2013-02-21 09:51:00
5:11 AM,24.8,14.4,65,30.17,10.0,NW,10.4,-,N/A,,Clear,320,2013-02-21 10:11:00
5:31 AM,24.8,14.5,65,30.18,10.0,NW,11.5,-,N/A,,Clear,320,2013-02-21 10:31:00
5:52 AM,24.8,14.5,65,30.17,10.0,NNW,15.0,18.4,N/A,,Clear,330,2013-02-21 10:52:00
5:53 AM,24.8,14.0,64,30.18,10.0,NW,11.5,18.4,N/A,,Clear,310,2013-02-21 10:53:00
6:12 AM,24.6,14.7,66,30.17,10.0,NNW,12.7,-,N/A,,Clear,330,2013-02-21 11:12:00
6:32 AM,24.6,14.5,66,30.18,10.0,NNW,13.8,20.7,N/A,,Clear,330,2013-02-21 11:32:00
6:40 AM,24.4,14.7,67,30.18,10.0,NNW,12.7,18.4,N/A,,Clear,330,2013-02-21 11:40:00
6:53 AM,24.8,14.0,64,30.18,10.0,NW,15.0,20.7,N/A,,Partly Cloudy,320,2013-02-21 11:53:00
7:53 AM,26.6,15.8,64,30.20,10.0,NW,16.1,21.9,N/A,,Scattered Clouds,310,2013-02-21 12:53:00
8:53 AM,28.4,15.8,59,30.22,10.0,NNW,17.3,28.8,N/A,,Mostly Cloudy,340,2013-02-21 13:53:00
9:53 AM,30.2,15.8,55,30.22,10.0,NNW,21.9,28.8,N/A,,Scattered Clouds,330,2013-02-21 14:53:00
10:53 AM,32.0,15.8,51,30.22,10.0,WNW,17.3,28.8,N/A,,Partly Cloudy,300,2013-02-21 15:53:00
11:53 AM,35.6,15.8,44,30.20,10.0,WNW,13.8,25.3,N/A,,Partly Cloudy,300,2013-02-21 16:53:00
12:53 PM,35.6,17.6,48,30.19,10.0,NW,23.0,28.8,N/A,,Clear,310,2013-02-21 17:53:00
2:54 PM,39.2,19.4,45,30.18,10.0,NW,13.8,24.2,N/A,,Partly Cloudy,320,2013-02-21 19:54:00
3:58 PM,37.4,19.4,48,30.19,10.0,NNW,13.8,24.2,N/A,,Clear,340,2013-02-21 20:58:00
4:53 PM,37.4,19.4,48,30.20,10.0,NNW,15.0,21.9,N/A,,Clear,340,2013-02-21 21:53:00
5:52 PM,33.8,19.4,56,30.24,10.0,North,5.8,-,N/A,,Clear,350,2013-02-21 22:52:00
6:49 PM,32.0,19.4,60,30.27,10.0,NNW,5.8,-,N/A,,Clear,330,2013-02-21 23:49:00
7:50 PM,32.0,21.2,64,30.30,10.0,NNW,4.6,-,N/A,,Clear,340,2013-02-22 00:50:00
8:55 PM,32.0,19.4,60,30.32,10.0,NNW,5.8,-,N/A,,Clear,340,2013-02-22 01:55:00
9:53 PM,31.5,20.3,63,30.33,10.0,North,5.8,-,N/A,,Clear,350,2013-02-22 02:53:00
10:13 PM,31.5,20.1,63,30.33,10.0,NNW,5.8,-,N/A,,Clear,340,2013-02-22 03:13:00
10:34 PM,30.0,20.5,68,30.33,10.0,NW,5.8,-,N/A,,Clear,320,2013-02-22 03:34:00
10:54 PM,30.0,21.2,70,30.34,10.0,NW,5.8,-,N/A,,Clear,310,2013-02-22 03:54:00
11:14 PM,29.1,21.4,73,30.34,10.0,NNW,6.9,-,N/A,,Clear,330,2013-02-22 04:14:00
11:34 PM,30.2,21.7,71,30.34,10.0,North,5.8,-,N/A,,Clear,350,2013-02-22 04:34:00
11:54 PM,30.6,21.2,68,30.34,10.0,North,3.5,-,N/A,,Clear,350,2013-02-22 04:54:00